WXM80 ListenWXM80 Stop

You find our weather info also at:

UK Metoffice

WeatherCloud

Weather Underground

Northeastern Weather Network

AWEKAS

Citizen Weather Observer Program (CWOP)

HAMweather, WeatherForYou, PWS Weather


Weather Underground History page Text

Daily Summary for November 3, 2017 Units:  Metric    English   Both
« Previous Day
Next Day »
Daily Weekly Monthly Yearly Custom
  High: Low: Average:
Temperature: 24.7 °C 11.7 °C 18.8 °C
Dew Point: 19.2 °C 4.6 °C 15.4 °C
Humidity: 98 % 60 % 82 %
Wind Speed: 19.8 km/h 0 km/h 4.7 km/h
Wind Gust: 33.3 km/h - -
Wind:- - SSW
Pressure: 1022.9 hPa 1013.8 hPa -
Precipitation: 6.6 mm    
Historical Graphs
 
 
Tabular Data for November 3, 2017
Time Temperature Dew Point Pressure Wind Wind Speed Wind Gust Humidity Rainfall Rate (Hourly)
00:01 16.8 °C 16 °C 1022.6 hPa Calm   1.9 km/h 95 % 0.51 mm
00:06 16.8 °C 16 °C 1022.6 hPa Calm   3.7 km/h 95 % 0.51 mm
00:11 16.8 °C 16 °C 1022.6 hPa SW 0.3 km/h 1.9 km/h 95 % 0.25 mm
00:16 16.8 °C 16 °C 1022.6 hPa SSW 0.5 km/h 5.6 km/h 95 % 0.25 mm
00:21 16.8 °C 16 °C 1022.2 hPa SSW 0.3 km/h 3.7 km/h 95 % 0.25 mm
00:26 16.8 °C 16.2 °C 1022.2 hPa SW 0.8 km/h 3.7 km/h 96 % 0.51 mm
00:31 16.8 °C 16.2 °C 1022.6 hPa Calm   1.9 km/h 96 % 0.51 mm
00:36 16.8 °C 16.2 °C 1022.2 hPa Calm   1.9 km/h 96 % 0.51 mm
00:42 16.9 °C 16.2 °C 1022.2 hPa Calm   1.9 km/h 96 % 0.51 mm
00:46 16.8 °C 16.2 °C 1021.9 hPa Calm   1.9 km/h 96 % 0.51 mm
00:51 16.8 °C 16.2 °C 1022.2 hPa Calm   1.9 km/h 96 % 0.25 mm
00:57 16.8 °C 16.2 °C 1021.9 hPa SSE 0.3 km/h   96 % 0.25 mm
01:02 16.8 °C 16 °C 1021.9 hPa Calm     95 % 0.51 mm
01:07 16.7 °C 15.9 °C 1021.9 hPa Calm     95 % 0.51 mm
01:12 16.7 °C 15.9 °C 1021.9 hPa SSE 0.2 km/h 1.9 km/h 95 % 0.51 mm
01:17 16.7 °C 15.9 °C 1021.9 hPa SSW 0.2 km/h 3.7 km/h 95 % 0.51 mm
01:22 16.7 °C 15.9 °C 1021.6 hPa Calm     95 % 0.51 mm
01:27 16.6 °C 15.8 °C 1021.6 hPa South 0.2 km/h 1.9 km/h 95 % 0.25 mm
01:32 16.6 °C 15.9 °C 1021.6 hPa SSW 1 km/h 5.6 km/h 96 % 0.25 mm
01:37 16.6 °C 15.9 °C 1021.6 hPa SSW 0.3 km/h 5.6 km/h 96 % 0.25 mm
01:47 16.8 °C 16.1 °C 1021.6 hPa SSW 3.2 km/h 5.6 km/h 96 % 0.51 mm
01:52 16.8 °C 16.1 °C 1021.2 hPa South 1 km/h 3.7 km/h 96 % 0.51 mm
01:57 16.8 °C 16.2 °C 1021.2 hPa SSW 0.3 km/h 1.9 km/h 96 % 0.51 mm
02:02 16.8 °C 16.2 °C 1021.2 hPa South 2.9 km/h 5.6 km/h 96 % 0.25 mm
02:07 16.9 °C 16.2 °C 1021.2 hPa SSW 1.9 km/h 5.6 km/h 96 % 0.25 mm
02:12 16.9 °C 16.3 °C 1021.2 hPa South 3.4 km/h 7.4 km/h 96 % 0.25 mm
02:17 16.9 °C 16.3 °C 1021.6 hPa SSW 2.6 km/h 5.6 km/h 96 % 0.51 mm
02:22 17 °C 16.5 °C 1021.2 hPa SSW 3.1 km/h 6.4 km/h 97 % 0.51 mm
02:27 17 °C 16.3 °C 1021.2 hPa WSW 0.8 km/h 3.7 km/h 96 % 0.51 mm
02:32 17 °C 16.5 °C 1021.2 hPa South 1.8 km/h 5.6 km/h 97 % 0.51 mm
02:37 17 °C 16.3 °C 1021.2 hPa South 2.7 km/h 6.4 km/h 96 % 0.51 mm
02:42 17.1 °C 16.4 °C 1021.2 hPa SSW 3.2 km/h 5.6 km/h 96 % 0.25 mm
02:47 17.1 °C 16.4 °C 1020.9 hPa WSW 1.4 km/h 5.6 km/h 96 % 0.25 mm
02:52 17.1 °C 16.4 °C 1020.9 hPa WSW 3.1 km/h 6.4 km/h 96 % 0.25 mm
02:57 17.1 °C 16.4 °C 1020.9 hPa SW 2.9 km/h 7.4 km/h 96 % 0.51 mm
03:02 17.1 °C 16.4 °C 1020.9 hPa SSW 2.9 km/h 7.4 km/h 96 % 0.51 mm
03:07 17.1 °C 16.4 °C 1020.9 hPa SSW 4.5 km/h 5.6 km/h 96 % 0.51 mm
03:12 17.1 °C 16.4 °C 1020.5 hPa WSW 3.4 km/h 5.6 km/h 96 % 0.51 mm
03:17 17.1 °C 16.4 °C 1020.5 hPa SW 1.6 km/h 5.6 km/h 96 % 0.25 mm
03:22 17.1 °C 16.4 °C 1020.5 hPa SW 2.4 km/h 5.6 km/h 96 % 0.25 mm
03:27 17.1 °C 16.4 °C 1020.2 hPa SSW 2.3 km/h 3.7 km/h 96 % 0.25 mm
03:32 17.1 °C 16.4 °C 1020.2 hPa WSW 2.1 km/h 5.6 km/h 96 % 0.25 mm
03:37 17.1 °C 16.4 °C 1020.2 hPa South 1.8 km/h 7.4 km/h 96 % 0.25 mm
03:42 17.1 °C 16.4 °C 1020.2 hPa SSW 0.5 km/h 5.6 km/h 96 % 0.51 mm
03:47 17.1 °C 16.4 °C 1019.9 hPa SSW 2.6 km/h 5.6 km/h 96 % 0.51 mm
03:52 17.1 °C 16.4 °C 1019.9 hPa SW 1.1 km/h 5.6 km/h 96 % 0.51 mm
03:57 17.1 °C 16.4 °C 1019.5 hPa South 3.2 km/h 5.6 km/h 96 % 0.25 mm
04:02 17.1 °C 16.6 °C 1019.5 hPa SE 1.9 km/h 5.6 km/h 97 % 0.25 mm
04:08 17 °C 16.3 °C 1019.9 hPa SSW 1 km/h 5.6 km/h 96 % 0.25 mm
04:13 17 °C 16.3 °C 1019.5 hPa SSW 3.2 km/h 5.6 km/h 96 % 0.25 mm
04:18 17 °C 16.3 °C 1019.5 hPa SSW 4.3 km/h 6.4 km/h 96 % 0.51 mm
04:23 17 °C 16.3 °C 1020.2 hPa SSW 1.1 km/h 6.4 km/h 96 % 0.51 mm
04:28 16.9 °C 16.4 °C 1019.2 hPa SSW 1 km/h 3.7 km/h 97 % 0.51 mm
04:34 16.9 °C 16.4 °C 1018.8 hPa SSW 3.7 km/h 5.6 km/h 97 % 0.51 mm
04:39 16.9 °C 16.3 °C 1020.2 hPa SSW 1.6 km/h 3.7 km/h 96 % 0.25 mm
04:44 16.9 °C 16.2 °C 1020.2 hPa WSW 3.4 km/h 5.6 km/h 96 % 0.25 mm
04:49 16.9 °C 16.2 °C 1020.2 hPa WSW 0.3 km/h 7.4 km/h 96 % 0.25 mm
04:54 16.8 °C 16.2 °C 1020.2 hPa SW 2.7 km/h 11.1 km/h 96 % 0.51 mm
04:59 16.8 °C 16.2 °C 1020.2 hPa Calm   1.9 km/h 96 % 0.51 mm
05:04 16.8 °C 16.1 °C 1019.9 hPa WSW 3.1 km/h 3.7 km/h 96 % 0.51 mm
05:09 16.8 °C 16.1 °C 1019.9 hPa SW 1.1 km/h 3.7 km/h 96 % 0.51 mm
05:14 16.8 °C 16.1 °C 1019.9 hPa SSW 1 km/h 7.4 km/h 96 % 0.51 mm
05:19 16.7 °C 16.1 °C 1019.9 hPa SSW 1.9 km/h 3.7 km/h 96 % 0.25 mm
05:24 16.7 °C 16.1 °C 1020.2 hPa WSW 1.1 km/h 5.6 km/h 96 % 0.25 mm
05:28 16.7 °C 16.1 °C 1019.9 hPa SSW 1.6 km/h 7.4 km/h 96 % 0.51 mm
05:34 16.7 °C 16 °C 1020.2 hPa SW 0.8 km/h 5.6 km/h 96 % 0.51 mm
05:44 16.7 °C 16 °C 1020.2 hPa WNW 0.6 km/h 5.6 km/h 96 % 0.51 mm
05:49 16.7 °C 16.2 °C 1020.5 hPa SW 2.9 km/h 5.6 km/h 97 % 0.51 mm
05:54 16.7 °C 16.2 °C 1020.2 hPa WSW 2.7 km/h 5.6 km/h 97 % 0.25 mm
05:59 16.7 °C 16.2 °C 1020.2 hPa WSW 3.9 km/h 7.4 km/h 97 % 0.25 mm
06:04 16.7 °C 16.2 °C 1020.2 hPa West 0.2 km/h 1.9 km/h 97 % 0.51 mm
06:09 16.7 °C 16.2 °C 1020.2 hPa WSW 2.3 km/h 4.8 km/h 97 % 0.51 mm
06:14 16.7 °C 16.2 °C 1020.2 hPa Calm     97 % 0.51 mm
06:19 16.7 °C 16.2 °C 1019.2 hPa WSW 0.5 km/h 3.2 km/h 97 % 0.51 mm
06:24 16.8 °C 16.3 °C 1018.8 hPa SW 3.2 km/h 7.4 km/h 97 % 0.51 mm
06:29 16.8 °C 16.3 °C 1018.8 hPa SW 2.4 km/h 7.4 km/h 97 % 0.25 mm
06:34 16.8 °C 16.3 °C 1018.8 hPa Calm   1.9 km/h 97 % 0.25 mm
06:39 16.7 °C 16.2 °C 1018.8 hPa Calm   1.9 km/h 97 % 0.25 mm
06:44 16.7 °C 16.2 °C 1018.5 hPa Calm   3.7 km/h 97 % 0.51 mm
06:49 16.7 °C 16.2 °C 1018.2 hPa SW 0.3 km/h 1.9 km/h 97 % 0.51 mm
06:54 16.7 °C 16.2 °C 1018.2 hPa SSE 0.6 km/h 3.7 km/h 97 % 0.51 mm
06:59 16.6 °C 16.1 °C 1018.2 hPa SSW 1.6 km/h 3.7 km/h 97 % 0.51 mm
07:04 16.6 °C 16.1 °C 1018.2 hPa SE 0.8 km/h 3.2 km/h 97 % 0.25 mm
07:09 16.6 °C 16.1 °C 1017.8 hPa SE 0.5 km/h 3.7 km/h 97 % 0.25 mm
07:14 16.6 °C 16.1 °C 1017.8 hPa SSW 0.2 km/h 1.9 km/h 97 % 0.25 mm
07:19 16.6 °C 16.1 °C 1017.8 hPa Calm     97 % 0.51 mm
07:24 16.5 °C 16 °C 1017.5 hPa SSW 0.3 km/h 1.9 km/h 97 % 0.51 mm
07:29 16.5 °C 16 °C 1017.8 hPa Calm     97 % 0.51 mm
07:34 16.5 °C 16 °C 1017.8 hPa West 1.3 km/h 3.7 km/h 97 % 0.51 mm
07:39 16.4 °C 15.9 °C 1017.5 hPa SW 1.4 km/h 3.2 km/h 97 % 0.51 mm
07:45 16.4 °C 15.9 °C 1017.5 hPa Calm   1.9 km/h 97 % 0.25 mm
07:50 16.4 °C 15.9 °C 1017.5 hPa WSW 0.5 km/h 1.9 km/h 97 % 0.25 mm
07:54 16.4 °C 15.9 °C 1017.5 hPa Calm     97 % 0.25 mm
07:59 16.4 °C 15.9 °C 1017.2 hPa SSW 0.6 km/h 3.7 km/h 97 % 0.51 mm
08:05 16.4 °C 15.9 °C 1017.5 hPa SW 0.5 km/h 3.2 km/h 97 % 0.51 mm
08:10 16.4 °C 15.9 °C 1017.5 hPa Calm     97 % 0.51 mm
08:15 16.5 °C 16 °C 1019.2 hPa SSW 0.2 km/h 4.8 km/h 97 % 0.51 mm
08:20 16.5 °C 16 °C 1017.5 hPa Calm   1.9 km/h 97 % 0.25 mm
08:25 16.6 °C 16.1 °C 1017.5 hPa Calm   1.9 km/h 97 % 0.25 mm
08:30 16.6 °C 16.1 °C 1019.5 hPa Calm     97 % 0.51 mm
08:35 16.6 °C 16.1 °C 1019.5 hPa SW 0.6 km/h 11.1 km/h 97 % 0.51 mm
08:40 16.7 °C 16.2 °C 1019.2 hPa Calm   7.4 km/h 97 % 0.51 mm
08:45 16.7 °C 16.2 °C 1019.5 hPa Calm     97 % 0.51 mm
08:50 16.7 °C 16.2 °C 1017.8 hPa SW 0.6 km/h 3.2 km/h 97 % 0.51 mm
08:55 16.8 °C 16.3 °C 1019.2 hPa SSW 1.8 km/h 5.6 km/h 97 % 0.51 mm
08:57 16.8 °C 16.3 °C 1018.8 hPa South 2.3 km/h 5.6 km/h 97 % 0.25 mm
09:02 16.8 °C 16.3 °C 1017.5 hPa SW 2.6 km/h 4.8 km/h 97 % 0.25 mm
09:07 16.9 °C 16.4 °C 1017.5 hPa WSW 0.6 km/h 1.9 km/h 97 % 0.51 mm
09:12 16.9 °C 16.4 °C 1019.2 hPa Calm   3.7 km/h 97 % 0.51 mm
09:17 17 °C 16.5 °C 1018.8 hPa SW 0.5 km/h 5.6 km/h 97 % 0.51 mm
09:22 17.1 °C 16.8 °C 1018.8 hPa WSW 2.4 km/h 5.6 km/h 98 % 0.51 mm
09:27 17.2 °C 16.7 °C 1018.8 hPa SSE 6.3 km/h 7.4 km/h 97 % 0.51 mm
09:32 17.4 °C 17.1 °C 1018.8 hPa West 1.6 km/h 5.6 km/h 98 % 0.25 mm
09:37 17.7 °C 17.3 °C 1018.8 hPa WSW 1.8 km/h 5.6 km/h 98 % 0.25 mm
09:42 18 °C 17.7 °C 1017.2 hPa SW 2.9 km/h 8 km/h 98 % 0.25 mm
09:47 18.3 °C 17.9 °C 1017.8 hPa SW 0.3 km/h 5.6 km/h 98 % 0.25 mm
09:52 18.6 °C 18.1 °C 1017.5 hPa SSW 5.5 km/h 14.8 km/h 97 % 0.25 mm
09:58 18.7 °C 18.1 °C 1017.5 hPa WSW 3.9 km/h 9.3 km/h 96 % 0.51 mm
10:03 18.9 °C 18.1 °C 1017.2 hPa WSW 1.1 km/h 3.7 km/h 95 % 0.51 mm
10:08 19.1 °C 18.3 °C 1018.5 hPa SW 8.5 km/h 13 km/h 95 % 0.25 mm
10:13 19.3 °C 18.1 °C 1018.5 hPa SSW 1 km/h 3.7 km/h 93 % 0.25 mm
10:18 19.5 °C 18.2 °C 1018.2 hPa SSW 6.1 km/h 9.3 km/h 92 % 0.25 mm
10:23 19.8 °C 18.5 °C 1018.2 hPa West 0.6 km/h 5.6 km/h 92 % 0.25 mm
10:28 20.3 °C 18.6 °C 1018.2 hPa SE 0.5 km/h 7.4 km/h 90 % 0.25 mm
10:33 20.7 °C 18.8 °C 1018.5 hPa East 1.6 km/h 3.7 km/h 89 % 0.25 mm
10:38 21.1 °C 19 °C 1017.2 hPa Calm   1.9 km/h 88 % 0.51 mm
10:43 21.3 °C 18.7 °C 1017.2 hPa SW 5.1 km/h 8 km/h 85 % 0.51 mm
10:48 21.7 °C 18.8 °C 1018.5 hPa SW 2.4 km/h 5.6 km/h 84 % 0.51 mm
10:53 21.9 °C 19.1 °C 1018.5 hPa WSW 4.3 km/h 9.3 km/h 84 % 0.51 mm
10:58 22.3 °C 18.7 °C 1018.5 hPa West 6.1 km/h 9.3 km/h 80 % 0.25 mm
11:03 22.5 °C 18.7 °C 1018.5 hPa SW 5.6 km/h 7.4 km/h 79 % 0.25 mm
11:08 22.7 °C 18.9 °C 1018.5 hPa SW 0.3 km/h 3.7 km/h 79 % 0.25 mm
11:13 23.1 °C 19.2 °C 1018.5 hPa SW 3.4 km/h 4.8 km/h 79 % 0.51 mm
11:19 23.3 °C 18.6 °C 1018.2 hPa South 8.2 km/h 8.2 km/h 75 % 0.51 mm
11:24 23.5 °C 18.8 °C 1018.2 hPa Calm   5.6 km/h 75 % 0.51 mm
11:29 23.7 °C 18.8 °C 1017.2 hPa South 4 km/h 9.3 km/h 74 % 0.51 mm
11:32 23.7 °C 18.6 °C 1016.8 hPa WSW 5.8 km/h 9.3 km/h 73 % 0.51 mm
11:37 23.7 °C 18.8 °C 1016.5 hPa SW 1.8 km/h 5.6 km/h 74 % 0.25 mm
11:42 23.7 °C 18.6 °C 1016.5 hPa SSW 1.8 km/h 6.4 km/h 73 % 0.25 mm
11:48 23.7 °C 18.4 °C 1016.5 hPa SSW 7.4 km/h 8 km/h 72 % 0.51 mm
11:53 23.7 °C 18.1 °C 1016.5 hPa SW 3.1 km/h 13 km/h 71 % 0.51 mm
11:58 23.7 °C 18.4 °C 1016.1 hPa SSW 2.7 km/h 7.4 km/h 72 % 0.51 mm
12:03 23.7 °C 18.2 °C 1016.1 hPa WSW 6.3 km/h 9.3 km/h 71 % 0.51 mm
12:08 23.8 °C 18 °C 1015.8 hPa SSW 5.6 km/h 13 km/h 70 % 0.51 mm
12:13 23.7 °C 17.7 °C 1015.8 hPa SW 10.3 km/h 18.5 km/h 69 % 0.25 mm
12:18 23.7 °C 17.9 °C 1015.5 hPa SW 5.6 km/h 9.7 km/h 70 % 0.51 mm
12:20 23.7 °C 17.9 °C 1015.8 hPa South 8 km/h 11.1 km/h 70 % 0.51 mm
12:25 23.6 °C 17.6 °C 1015.8 hPa SW 6.4 km/h 14.8 km/h 69 % 0.51 mm
12:30 23.6 °C 17.8 °C 1015.5 hPa SW 7.1 km/h 11.1 km/h 70 % 0.51 mm
12:35 23.5 °C 17.7 °C 1015.5 hPa SW 6.4 km/h 13 km/h 70 % 0.51 mm
12:40 23.4 °C 17.2 °C 1015.5 hPa WSW 11.3 km/h 27.8 km/h 68 % 0.51 mm
12:45 23.3 °C 16.8 °C 1015.5 hPa SW 13.8 km/h 22.2 km/h 67 % 0.25 mm
12:50 23.2 °C 16.9 °C 1015.1 hPa WSW 12.4 km/h 18.5 km/h 68 % 0.25 mm
12:55 23.2 °C 16.9 °C 1015.1 hPa SSW 4.2 km/h 8 km/h 68 % 0.25 mm
13:00 23.2 °C 16.9 °C 1014.8 hPa South 7.6 km/h 17.7 km/h 68 % 0.51 mm
13:05 23.2 °C 16.7 °C 1014.8 hPa SSE 7.9 km/h 14.8 km/h 67 % 0.51 mm
13:10 23.2 °C 17.2 °C 1014.8 hPa SSW 3.4 km/h 8 km/h 69 % 0.51 mm
13:15 23.2 °C 16.9 °C 1014.8 hPa WSW 7.9 km/h 14.8 km/h 68 % 0.51 mm
13:20 23.1 °C 16.7 °C 1014.8 hPa SSW 10.3 km/h 16.7 km/h 67 % 0.25 mm
13:25 23.1 °C 16.9 °C 1014.8 hPa West 3.7 km/h 9.3 km/h 68 % 0.25 mm
13:30 23.2 °C 17.2 °C 1014.4 hPa SSW 3.2 km/h 8 km/h 69 % 0.25 mm
13:35 23.2 °C 16.9 °C 1014.4 hPa SSW 14.8 km/h 22.5 km/h 68 % 0.51 mm
13:40 23.2 °C 17 °C 1014.4 hPa SW 9.8 km/h 14.8 km/h 68 % 0.51 mm
13:41 23.2 °C 16.8 °C 1014.4 hPa WSW 8.4 km/h 13 km/h 67 % 0.51 mm
13:47 23.3 °C 17.1 °C 1014.4 hPa SSW 6.4 km/h 18.5 km/h 68 % 0.51 mm
13:52 23.4 °C 17.4 °C 1014.4 hPa SW 8.7 km/h 18.5 km/h 69 % 0.51 mm
13:57 23.5 °C 17.3 °C 1014.1 hPa SSW 9.8 km/h 11.1 km/h 68 % 0.51 mm
14:02 23.7 °C 16.9 °C 1014.1 hPa SSW 4.8 km/h 13 km/h 66 % 0.25 mm
14:07 23.8 °C 17.3 °C 1014.1 hPa WSW 6.3 km/h 11.1 km/h 67 % 0.51 mm
14:12 23.9 °C 17.4 °C 1014.1 hPa WSW 10.9 km/h 14.8 km/h 67 % 0.51 mm
14:17 24.1 °C 17.6 °C 1014.8 hPa SW 8.9 km/h 13 km/h 67 % 0.51 mm
14:22 24.2 °C 17.7 °C 1014.8 hPa WSW 6 km/h 9.3 km/h 67 % 0.51 mm
14:27 24.2 °C 17.4 °C 1014.8 hPa SW 6.4 km/h 9.7 km/h 66 % 0.51 mm
14:32 24.3 °C 17.6 °C 1014.8 hPa SW 9.3 km/h 14.5 km/h 66 % 0.51 mm
14:37 24.4 °C 17.9 °C 1015.1 hPa SSW 5.1 km/h 9.7 km/h 67 % 0.25 mm
14:42 24.4 °C 17.7 °C 1014.8 hPa SW 4 km/h 9.7 km/h 66 % 0.25 mm
14:47 24.5 °C 17.7 °C 1014.8 hPa SW 3.5 km/h 9.3 km/h 66 % 0.25 mm
14:52 24.6 °C 17.8 °C 1014.8 hPa SSW 3.9 km/h 9.3 km/h 66 % 0.51 mm
14:57 24.6 °C 18.1 °C 1014.8 hPa SSW 4.8 km/h 7.4 km/h 67 % 0.51 mm
15:03 24.7 °C 17.7 °C 1014.1 hPa SW 3.7 km/h 3.7 km/h 65 % 0.51 mm
15:08 24.7 °C 17.7 °C 1014.1 hPa WSW 3.7 km/h 9.3 km/h 65 % 0.25 mm
15:13 24.6 °C 17.8 °C 1014.1 hPa SSW 2.9 km/h 9.7 km/h 66 % 0.25 mm
15:18 24.4 °C 17.4 °C 1014.1 hPa WSW 4.5 km/h 14.8 km/h 65 % 0.25 mm
15:23 24.3 °C 17.5 °C 1014.1 hPa SW 4 km/h 7.4 km/h 66 % 0.25 mm
15:28 24.2 °C 17.2 °C 1014.1 hPa WSW 3.1 km/h 9.3 km/h 65 % 0.25 mm
15:33 24.1 °C 17.3 °C 1014.1 hPa SW 4.8 km/h 8 km/h 66 % 0.25 mm
15:38 23.9 °C 17.4 °C 1014.1 hPa SW 0.6 km/h 5.6 km/h 67 % 0.25 mm
15:43 23.8 °C 17.3 °C 1014.1 hPa SSW 4.8 km/h 8 km/h 67 % 0.25 mm
15:48 23.7 °C 17.2 °C 1014.1 hPa WSW 3.4 km/h 9.7 km/h 67 % 0.25 mm
15:53 23.6 °C 17.3 °C 1014.1 hPa WSW 3.9 km/h 7.4 km/h 68 % 0 mm
15:58 23.4 °C 17.2 °C 1014.1 hPa SSW 4 km/h 7.4 km/h 68 % 0 mm
16:03 23.3 °C 17.1 °C 1013.8 hPa SW 1.3 km/h 3.7 km/h 68 % 0 mm
16:08 23.3 °C 17.1 °C 1014.1 hPa WSW 4.7 km/h 5.6 km/h 68 % 0 mm
16:13 23.2 °C 17.2 °C 1013.8 hPa WSW 2.1 km/h 5.6 km/h 69 % 0 mm
16:18 23.1 °C 16.9 °C 1014.1 hPa WSW 0.8 km/h 5.6 km/h 68 % 0 mm
16:23 23.1 °C 17.1 °C 1014.1 hPa SW 1.4 km/h 3.7 km/h 69 % 0 mm
16:29 23 °C 17 °C 1014.4 hPa West 4.3 km/h 7.4 km/h 69 % 0 mm
16:34 22.9 °C 17.2 °C 1014.1 hPa WSW 2.3 km/h 6.4 km/h 70 % 0 mm
16:39 22.8 °C 17.1 °C 1014.1 hPa West 2.1 km/h 5.6 km/h 70 % 0 mm
16:44 22.8 °C 17 °C 1014.4 hPa WSW 2.7 km/h 11.1 km/h 70 % 0.25 mm
16:49 22.7 °C 16.9 °C 1014.8 hPa WSW 2.7 km/h 11.1 km/h 70 % 0.25 mm
16:54 22.6 °C 17.1 °C 1014.8 hPa WSW 2.7 km/h 5.6 km/h 71 % 0.25 mm
16:59 22.5 °C 17 °C 1014.8 hPa WNW 5.6 km/h 9.3 km/h 71 % 0.25 mm
17:04 22.4 °C 16.9 °C 1015.1 hPa WNW 0.3 km/h 3.2 km/h 71 % 0.25 mm
17:09 22.3 °C 16.8 °C 1014.8 hPa West 0.6 km/h 3.7 km/h 71 % 0.25 mm
17:14 22.2 °C 16.9 °C 1015.1 hPa WSW 0.5 km/h 1.9 km/h 72 % 0.25 mm
17:19 22.1 °C 16.8 °C 1014.8 hPa West 2.1 km/h 5.6 km/h 72 % 0.25 mm
17:24 22.1 °C 17 °C 1016.5 hPa WNW 0.2 km/h 5.6 km/h 73 % 0.25 mm
17:29 21.9 °C 16.9 °C 1016.5 hPa Calm   1.6 km/h 73 % 0.25 mm
17:34 21.9 °C 16.8 °C 1015.5 hPa Calm   3.7 km/h 73 % 0.25 mm
17:40 21.8 °C 17 °C 1015.5 hPa West 0.8 km/h 3.7 km/h 74 % 0.25 mm
17:45 21.8 °C 16.7 °C 1015.5 hPa SW 1.6 km/h 6.4 km/h 73 % 0 mm
17:50 21.7 °C 16.6 °C 1015.5 hPa WSW 4.8 km/h 6.4 km/h 73 % 0 mm
17:55 21.6 °C 16.8 °C 1015.5 hPa NW 6.3 km/h 11.1 km/h 74 % 0 mm
18:00 21.6 °C 16.7 °C 1015.8 hPa WSW 4.3 km/h 9.3 km/h 74 % 0 mm
18:05 21.5 °C 16.9 °C 1015.8 hPa WNW 1 km/h 5.6 km/h 75 % 0 mm
18:10 21.4 °C 16.8 °C 1015.8 hPa WNW 3.5 km/h 9.3 km/h 75 % 0 mm
18:15 21.3 °C 16.7 °C 1016.1 hPa WNW 4.8 km/h 9.7 km/h 75 % 0 mm
18:20 21.2 °C 16.6 °C 1016.1 hPa WNW 3.7 km/h 5.6 km/h 75 % 0 mm
18:25 21.1 °C 16.7 °C 1016.1 hPa NNW 2.4 km/h 13 km/h 76 % 0 mm
18:30 21 °C 16.6 °C 1016.5 hPa WNW 3.7 km/h 7.4 km/h 76 % 0 mm
18:35 20.9 °C 16.5 °C 1016.1 hPa NW 4.2 km/h 9.3 km/h 76 % 0 mm
18:40 20.8 °C 16.4 °C 1016.1 hPa WNW 4 km/h 7.4 km/h 76 % 0 mm
18:45 20.7 °C 16.6 °C 1016.5 hPa WSW 2.6 km/h 8 km/h 77 % 0 mm
18:50 20.6 °C 16.4 °C 1016.5 hPa WNW 5.3 km/h 8 km/h 77 % 0 mm
18:55 20.5 °C 16.6 °C 1016.5 hPa NNE 5.8 km/h 7.4 km/h 78 % 0 mm
19:00 20.4 °C 16.5 °C 1016.8 hPa WNW 5.1 km/h 11.1 km/h 78 % 0 mm
19:05 20.3 °C 16.2 °C 1016.5 hPa North 2.4 km/h 7.4 km/h 77 % 0 mm
19:10 20.2 °C 15.8 °C 1016.8 hPa NW 4 km/h 8 km/h 76 % 0 mm
19:15 20.1 °C 15.7 °C 1016.8 hPa WNW 8 km/h 16.7 km/h 76 % 0 mm
19:20 20.1 °C 15.7 °C 1016.8 hPa WNW 12.1 km/h 17.7 km/h 76 % 0 mm
19:25 20 °C 15.7 °C 1016.8 hPa North 6.4 km/h 11.1 km/h 76 % 0 mm
19:31 19.9 °C 15.6 °C 1017.2 hPa NW 4.8 km/h 17.7 km/h 76 % 0 mm
19:36 19.8 °C 15.7 °C 1017.5 hPa NNW 8 km/h 16.1 km/h 77 % 0 mm
19:41 19.6 °C 15.4 °C 1017.5 hPa NNE 3.2 km/h 12.9 km/h 77 % 0 mm
19:46 19.4 °C 15.3 °C 1017.5 hPa NNE 4.8 km/h 14.5 km/h 77 % 0 mm
19:51 19.1 °C 14.8 °C 1017.8 hPa North 7.2 km/h 20.4 km/h 76 % 0 mm
19:55 18.9 °C 14.6 °C 1018.2 hPa NW 6 km/h 13 km/h 76 % 0 mm
20:00 18.8 °C 14.7 °C 1018.2 hPa North 7.6 km/h 14.8 km/h 77 % 0 mm
20:06 18.7 °C 14.6 °C 1018.2 hPa North 4.8 km/h 19.3 km/h 77 % 0 mm
20:11 18.6 °C 14.2 °C 1018.2 hPa North 9.7 km/h 16.1 km/h 76 % 0 mm
20:16 18.4 °C 14.1 °C 1018.2 hPa NNE 9.7 km/h 19.3 km/h 76 % 0 mm
20:20 18.2 °C 14.1 °C 1018.5 hPa NNW 10 km/h 14.8 km/h 77 % 0 mm
20:26 18 °C 13.7 °C 1018.5 hPa North 14.8 km/h 16.1 km/h 76 % 0 mm
20:31 17.8 °C 13.3 °C 1019.5 hPa NNE 14.5 km/h 25.7 km/h 75 % 0 mm
20:36 17.4 °C 12.8 °C 1019.5 hPa NNE 14.5 km/h 25.7 km/h 74 % 0 mm
20:41 17.1 °C 12.4 °C 1019.9 hPa North 14.5 km/h 27.4 km/h 74 % 0 mm
20:46 16.8 °C 12.2 °C 1020.2 hPa ENE 10.6 km/h 18.5 km/h 74 % 0 mm
20:51 16.6 °C 11.9 °C 1020.2 hPa NNE 11.7 km/h 22.2 km/h 74 % 0 mm
20:56 16.3 °C 11.5 °C 1020.2 hPa North 11.1 km/h 25.9 km/h 73 % 0 mm
21:01 16.1 °C 11.5 °C 1020.2 hPa NNW 14.5 km/h 20.4 km/h 74 % 0 mm
21:06 15.9 °C 11.1 °C 1020.5 hPa NNW 16.7 km/h 27.8 km/h 73 % 0 mm
21:11 15.7 °C 10.7 °C 1020.5 hPa North 11.7 km/h 24.1 km/h 72 % 0 mm
21:16 15.6 °C 10.7 °C 1020.5 hPa North 12.2 km/h 25.7 km/h 73 % 0 mm
21:21 15.4 °C 10.2 °C 1020.5 hPa NNE 13 km/h 22.2 km/h 71 % 0 mm
21:26 15.2 °C 9.8 °C 1020.9 hPa North 19.8 km/h 27.8 km/h 70 % 0 mm
21:31 15 °C 9.6 °C 1020.9 hPa North 17.9 km/h 27.8 km/h 70 % 0 mm
21:36 14.8 °C 9.3 °C 1021.2 hPa North 15.9 km/h 27.8 km/h 70 % 0 mm
21:41 14.6 °C 9.2 °C 1021.2 hPa North 17.7 km/h 33.3 km/h 70 % 0.25 mm
21:46 14.4 °C 8.8 °C 1021.6 hPa NW 9.3 km/h 24.1 km/h 69 % 0.25 mm
21:51 14.3 °C 8.4 °C 1021.6 hPa North 15.1 km/h 18.5 km/h 68 % 0.25 mm
21:57 14.1 °C 8.9 °C 1021.9 hPa NE 16.6 km/h 20.4 km/h 71 % 0.25 mm
22:02 13.9 °C 8.6 °C 1021.6 hPa NW 13 km/h 22.2 km/h 70 % 0.25 mm
22:07 13.7 °C 8.1 °C 1021.9 hPa North 15.8 km/h 27.8 km/h 69 % 0.25 mm
22:12 13.6 °C 8 °C 1021.9 hPa NE 13.8 km/h 20.4 km/h 69 % 0.25 mm
22:17 13.4 °C 7.9 °C 1021.6 hPa North 13 km/h 22.5 km/h 69 % 0.25 mm
22:22 13.3 °C 7.7 °C 1021.9 hPa NNE 13.8 km/h 18.5 km/h 69 % 0.25 mm
22:27 13.2 °C 7.2 °C 1021.6 hPa NNE 15.4 km/h 22.5 km/h 67 % 0.25 mm
22:32 13.1 °C 7.3 °C 1021.9 hPa North 14.6 km/h 20.4 km/h 68 % 0.25 mm
22:37 12.9 °C 6.7 °C 1021.9 hPa North 16.7 km/h 27.8 km/h 66 % 0.25 mm
22:42 12.9 °C 6.9 °C 1022.2 hPa NNE 10.6 km/h 20.4 km/h 67 % 0 mm
22:47 12.8 °C 6.8 °C 1022.2 hPa NNE 8.9 km/h 17.7 km/h 67 % 0 mm
22:52 12.7 °C 6.1 °C 1022.2 hPa North 11.1 km/h 18.5 km/h 64 % 0 mm
22:57 12.6 °C 6 °C 1022.2 hPa NNE 8.4 km/h 14.8 km/h 64 % 0 mm
23:02 12.5 °C 5.4 °C 1022.2 hPa NNW 8.7 km/h 16.7 km/h 62 % 0 mm
23:07 12.4 °C 5.3 °C 1022.2 hPa NNE 11.4 km/h 16.7 km/h 62 % 0 mm
23:13 12.3 °C 4.7 °C 1022.2 hPa North 12.2 km/h 24.1 km/h 60 % 0 mm
23:21 12.2 °C 4.9 °C 1022.6 hPa NNW 9.8 km/h 27.8 km/h 61 % 0 mm
23:24 12.2 °C 5.1 °C 1022.6 hPa North 8 km/h 16.7 km/h 62 % 0 mm
23:28 12.1 °C 5.2 °C 1014.4 hPa North 9.5 km/h 16.7 km/h 63 % 0 mm
23:29 12.1 °C 5.2 °C 1022.9 hPa ENE 8.5 km/h 16.7 km/h 63 % 0 mm
23:31 12.1 °C 5.2 °C 1022.9 hPa NNW 12.9 km/h 20.4 km/h 63 % 0 mm
23:33 12 °C 5.2 °C 1022.9 hPa NNW 13.8 km/h 22.2 km/h 63 % 0 mm
23:43 11.8 °C 5 °C 1022.9 hPa NNE 12.6 km/h 16.7 km/h 63 % 0 mm
23:48 11.8 °C 4.9 °C 1022.9 hPa NNW 8.5 km/h 18.5 km/h 63 % 0 mm
23:53 11.7 °C 4.6 °C 1022.9 hPa North 14.5 km/h 18.5 km/h 62 % 0 mm
Crab Meadow Weather
Compliments of Weather Underground - 3 mb

Script developed by  Jim McMurry - jmcmurry@mwt.net Adapted for the template by  Wim van der Kuil - Leuven-Template.eu

Weather Terms: Severe Thunderstorm Watch - Conditions are favorable for the development of severe thunderstorms in and close to the watch area. These watches are issued for large areas by the Storm Prediction Center in Norman, Oklahoma, and are usually valid for four to six hours.